SIA482 WSSS-FAOR

Flight info

Callsign SIA482
Flight time N/A
Altitude 36000
Route TAROS1A TAROS R469 PKU N633 PIBED R212 GUDUG/N0491F380 UR212 NKW R348 GEPUG/N0488F400 R348 RUPIG UR348 TNV UB536 EROPA/N0490F280 UB536 ETIVI DCT IMKAN UT446 IBGUB
Aircraft A359/H-SDE2E3GHIJ3J4J5LM1ORWXY/LB1D1

Departure

Time 2026-05-06 07:53
Airport Singapore Changi Airport (WSSS)

Arrival

Time N/A
Airport O.R. Tambo International Airport (FAOR)
Time Latitude Longitude Altitude Speed Heading
2026-05-06 07:31 1.35218 103.98374 37 ft 0 kts 112°
2026-05-06 07:40 1.35220 103.98369 36 ft 3 kts 112°
2026-05-06 07:40 1.35224 103.98360 35 ft 4 kts 112°
2026-05-06 07:40 1.35235 103.98335 34 ft 4 kts 115°
2026-05-06 07:40 1.35245 103.98313 34 ft 4 kts 129°
2026-05-06 07:41 1.35265 103.98300 33 ft 4 kts 177°
2026-05-06 07:41 1.35287 103.98303 33 ft 1 kts 203°
2026-05-06 07:41 1.35265 103.98294 34 ft 4 kts 203°
2026-05-06 07:41 1.35240 103.98283 34 ft 4 kts 202°
2026-05-06 07:42 1.35215 103.98273 37 ft 4 kts 202°
2026-05-06 07:42 1.35195 103.98264 37 ft 0 kts 202°
2026-05-06 07:44 1.35174 103.98255 37 ft 7 kts 202°
2026-05-06 07:45 1.35133 103.98218 37 ft 8 kts 236°
2026-05-06 07:45 1.35104 103.98166 37 ft 9 kts 241°
2026-05-06 07:45 1.35067 103.98115 37 ft 9 kts 218°
2026-05-06 07:45 1.35008 103.98087 37 ft 10 kts 202°
2026-05-06 07:46 1.34945 103.98060 37 ft 10 kts 202°
2026-05-06 07:46 1.34880 103.98033 37 ft 10 kts 203°
2026-05-06 07:46 1.34805 103.98001 37 ft 13 kts 203°
2026-05-06 07:46 1.34718 103.97986 37 ft 12 kts 155°
2026-05-06 07:47 1.34675 103.98056 37 ft 12 kts 112°
2026-05-06 07:47 1.34637 103.98147 37 ft 18 kts 113°
2026-05-06 07:47 1.34583 103.98273 46 ft 21 kts 113°
2026-05-06 07:47 1.34525 103.98410 48 ft 22 kts 114°
2026-05-06 07:48 1.34456 103.98570 37 ft 26 kts 113°
2026-05-06 07:48 1.34400 103.98701 37 ft 20 kts 113°
2026-05-06 07:48 1.34344 103.98830 36 ft 20 kts 113°
2026-05-06 07:48 1.34267 103.98884 36 ft 14 kts 189°
2026-05-06 07:49 1.34175 103.98849 36 ft 15 kts 202°
2026-05-06 07:49 1.34063 103.98802 36 ft 19 kts 202°
2026-05-06 07:49 1.33938 103.98750 36 ft 19 kts 202°
2026-05-06 07:49 1.33813 103.98697 36 ft 19 kts 205°
2026-05-06 07:50 1.33692 103.98645 36 ft 18 kts 202°
2026-05-06 07:50 1.33576 103.98597 36 ft 18 kts 202°
2026-05-06 07:50 1.33461 103.98549 36 ft 18 kts 202°
2026-05-06 07:50 1.33346 103.98501 36 ft 18 kts 203°
2026-05-06 07:51 1.33230 103.98452 36 ft 18 kts 203°
2026-05-06 07:51 1.33114 103.98403 37 ft 18 kts 203°
2026-05-06 07:51 1.33014 103.98361 37 ft 12 kts 202°
2026-05-06 07:51 1.32943 103.98378 36 ft 11 kts 126°
2026-05-06 07:52 1.32912 103.98448 36 ft 11 kts 110°
2026-05-06 07:52 1.32927 103.98517 36 ft 10 kts 45°
2026-05-06 07:52 1.32974 103.98538 36 ft 6 kts 21°
2026-05-06 07:52 1.33152 103.98611 37 ft 58 kts 24°
2026-05-06 07:53 1.33479 103.98751 37 ft 96 kts 23°
2026-05-06 07:53 1.34261 103.99081 35 ft 146 kts 23°
2026-05-06 07:53 1.35332 103.99532 104 ft 182 kts 23°
2026-05-06 07:53 1.36452 103.99994 753 ft 177 kts 21°
2026-05-06 07:54 1.37640 104.00460 1272 ft 185 kts 22°
2026-05-06 07:54 1.38880 104.00979 1648 ft 201 kts 24°
2026-05-06 07:54 1.40221 104.01562 1988 ft 220 kts 24°
2026-05-06 07:54 1.41678 104.02196 2238 ft 238 kts 24°
2026-05-06 07:55 1.43814 104.03110 2608 ft 258 kts 23°
2026-05-06 07:55 1.44920 104.03579 2943 ft 264 kts 23°
2026-05-06 07:55 1.46552 104.04453 3487 ft 270 kts 38°
2026-05-06 07:55 1.47703 104.05918 4031 ft 271 kts 68°
2026-05-06 07:56 1.47976 104.07768 4554 ft 273 kts 98°
2026-05-06 07:56 1.47401 104.09566 5091 ft 274 kts 115°
2026-05-06 07:56 1.46581 104.11297 5639 ft 276 kts 116°
2026-05-06 07:56 1.45744 104.13033 6214 ft 278 kts 116°
2026-05-06 07:57 1.44911 104.14783 6758 ft 280 kts 115°
2026-05-06 07:57 1.44082 104.16545 7328 ft 281 kts 115°
2026-05-06 07:57 1.43252 104.18317 7910 ft 282 kts 115°
2026-05-06 07:57 1.42435 104.20075 8509 ft 283 kts 115°
2026-05-06 07:58 1.41605 104.21869 9091 ft 286 kts 115°
2026-05-06 07:58 1.40764 104.23685 9655 ft 290 kts 115°
2026-05-06 07:58 1.39914 104.25523 10159 ft 293 kts 115°
2026-05-06 07:58 1.39040 104.27414 10451 ft 306 kts 115°
2026-05-06 07:59 1.38127 104.29389 10697 ft 320 kts 114°
2026-05-06 07:59 1.37177 104.31442 10926 ft 332 kts 114°
2026-05-06 07:59 1.36191 104.33574 11164 ft 344 kts 114°
2026-05-06 07:59 1.35168 104.35785 11385 ft 355 kts 114°
2026-05-06 08:00 1.34115 104.38058 11604 ft 366 kts 115°
2026-05-06 08:00 1.32694 104.40194 11788 ft 376 kts 134°